Change the Weather History Date:

Wednesday, April 24, 2013

  Actual Average Record
Temperature  
Mean Temperature 42 °F 55 °F  
Max Temperature 61 °F 71 °F 95 °F (2012)
Min Temperature 23 °F 40 °F 23 °F (2013)
Degree Days  
Heating Degree Days 23 10  
Month to date heating degree days 463 322  
Since 1 July heating degree days 4911 5070  
Cooling Degree Days 0 0  
Month to date cooling degree days 0 0  
Year to date cooling degree days 0 1  
Moisture  
Dew Point 20 °F    
Average Humidity 52    
Maximum Humidity 88    
Minimum Humidity 15    
Precipitation  
Precipitation 0.00 in 0.05 in 1.10 in (1980)
Month to date precipitation 0.13 0.97  
Year to date precipitation 0.48 2.43  
Sea Level Pressure  
Sea Level Pressure 30.20 in    
Wind  
Wind Speed 8 mph (WNW)    
Max Wind Speed 15 mph    
Max Gust Speed 16 mph    
Visibility 10 miles    
Events      
T = Trace of Precipitation, MM = Missing Value Source: NWS Daily Summary

Daily Weather History Graph

Daily Weather History Graph

Search for Another Location

Airport or City:

Trip Planner

Search our weather history database for the weather conditions in past years. The results will help you decide how hot, cold, wet, or windy it might be!

Date:

Astronomy

Apr. 24, 2013 Rise Set
Actual Time 6:06 AM MDT 7:38 PM MDT
Civil Twilight 5:38 AM MDT 8:06 PM MDT
Nautical Twilight 5:04 AM MDT 8:40 PM MDT
Astronomical Twilight 4:29 AM MDT 9:15 PM MDT
Moon 6:45 PM MDT (4/24) 5:10 AM MDT (4/24)
Length of Visible Light 14h 28m
Length of Day
13h 32m
Waxing Gibbous, 98% of the Moon is Illuminated
Apr 24
Waxing Gibbous
Apr 25
Full
May 2
Last Quarter
May 9
New
May 17
First Quarter

Hourly Weather History & Observations

Time (MDT) Temp. Windchill Dew Point Humidity Pressure Visibility Wind Dir Wind Speed Gust Speed Precip Events Conditions
12:53 AM 26.1 °F 16.2 °F 21.9 °F 84% 30.32 in 10.0 mi SW 10.4 mph - N/A   Clear
1:53 AM 25.0 °F 15.5 °F 21.0 °F 85% 30.32 in 10.0 mi WSW 9.2 mph - N/A   Clear
2:53 AM 25.0 °F 16.3 °F 21.0 °F 85% 30.30 in 10.0 mi WSW 8.1 mph - N/A   Clear
4:53 AM 24.1 °F 17.0 °F 19.9 °F 84% 30.25 in 10.0 mi West 5.8 mph - N/A   Clear
5:53 AM 24.1 °F 13.1 °F 19.9 °F 84% 30.26 in 10.0 mi West 11.5 mph - N/A   Clear
6:53 AM 25.0 °F 15.5 °F 21.0 °F 85% 30.28 in 10.0 mi West 9.2 mph - N/A   Clear
7:53 AM 28.0 °F 17.5 °F 23.0 °F 81% 30.28 in 10.0 mi WSW 12.7 mph - N/A   Clear
8:53 AM 34.0 °F 26.0 °F 26.1 °F 73% 30.26 in 10.0 mi West 10.4 mph - N/A   Clear
9:53 AM 39.9 °F 33.9 °F 28.0 °F 63% 30.24 in 10.0 mi WSW 9.2 mph - N/A   Clear
10:53 AM 45.0 °F 40.6 °F 27.0 °F 49% 30.22 in 10.0 mi SW 8.1 mph - N/A   Clear
11:53 AM 51.1 °F - 23.0 °F 33% 30.19 in 10.0 mi Variable 5.8 mph - N/A   Clear
12:53 PM 53.1 °F - 19.9 °F 27% 30.16 in 10.0 mi Calm Calm - N/A   Clear
1:53 PM 55.0 °F - 16.0 °F 22% 30.15 in 10.0 mi Calm Calm - N/A   Clear
2:53 PM 59.0 °F - 14.0 °F 17% 30.13 in 10.0 mi NW 5.8 mph - N/A   Clear
3:53 PM 60.1 °F - 12.9 °F 16% 30.12 in 10.0 mi NE 9.2 mph - N/A   Clear
4:53 PM 60.1 °F - 14.0 °F 16% 30.10 in 10.0 mi North 9.2 mph - N/A   Clear
5:53 PM 59.0 °F - 12.9 °F 16% 30.11 in 10.0 mi NNE 9.2 mph - N/A   Clear
6:53 PM 55.0 °F - 16.0 °F 22% 30.13 in 10.0 mi East 5.8 mph - N/A   Clear
7:53 PM 51.1 °F - 21.0 °F 31% 30.16 in 10.0 mi ENE 8.1 mph - N/A   Clear
8:53 PM 50.0 °F - 21.0 °F 32% 30.19 in 10.0 mi ENE 6.9 mph - N/A   Clear
9:53 PM 48.9 °F - 21.9 °F 35% 30.19 in 10.0 mi ENE 8.1 mph - N/A   Partly Cloudy
10:53 PM 48.0 °F - 21.9 °F 36% 30.19 in 10.0 mi SE 5.8 mph - N/A   Overcast
11:53 PM 46.9 °F - 23.0 °F 39% 30.16 in 10.0 mi East 11.5 mph - N/A   Overcast